Time,TemperatureF,DewpointF,PressureIn,WindDirection,WindDirectionDegrees,WindSpeedMPH,WindSpeedGustMPH,Humidity,HourlyPrecipIn,Conditions,Clouds,dailyrainin,SoftwareType,DateUTC
2013-06-02 00:02:00,42.1,41.0,30.22,WSW,250,1.0,3.0,95,0.00,,,0.08,weatherlink.com 1.10,2013-06-02 08:02:00,
2013-06-02 00:17:00,42.1,41.0,30.23,WSW,250,0.0,2.0,95,0.00,,,0.08,weatherlink.com 1.10,2013-06-02 08:17:00,
2013-06-02 00:32:00,41.9,41.0,30.23,WNW,288,0.0,5.0,95,0.00,,,0.00,weatherlink.com 1.10,2013-06-02 08:32:00,
2013-06-02 00:47:00,41.9,40.0,30.23,West,263,0.0,5.0,94,0.00,,,0.00,weatherlink.com 1.10,2013-06-02 08:47:00,
2013-06-02 01:02:00,42.0,40.0,30.23,West,261,0.0,3.0,93,0.00,,,0.00,weatherlink.com 1.10,2013-06-02 09:02:00,
2013-06-02 01:17:00,42.1,40.0,30.23,SW,229,0.0,2.0,92,0.00,,,0.00,weatherlink.com 1.10,2013-06-02 09:17:00,
2013-06-02 01:32:00,42.2,40.0,30.23,WSW,240,1.0,3.0,91,0.00,,,0.00,weatherlink.com 1.10,2013-06-02 09:32:00,
2013-06-02 01:47:00,41.9,40.0,30.23,WSW,258,1.0,3.0,91,0.00,,,0.00,weatherlink.com 1.10,2013-06-02 09:47:00,
2013-06-02 02:02:00,41.2,39.0,30.23,WSW,258,1.0,3.0,91,0.00,,,0.00,weatherlink.com 1.10,2013-06-02 10:02:00,
2013-06-02 02:17:00,40.6,39.0,30.23,WSW,258,0.0,2.0,92,0.00,,,0.00,weatherlink.com 1.10,2013-06-02 10:17:00,
2013-06-02 02:32:00,40.2,38.0,30.22,West,259,2.0,3.0,91,0.00,,,0.00,weatherlink.com 1.10,2013-06-02 10:32:00,
2013-06-02 02:47:00,39.7,38.0,30.22,West,259,0.0,2.0,92,0.00,,,0.00,weatherlink.com 1.10,2013-06-02 10:47:00,
2013-06-02 03:02:00,39.2,37.0,30.22,West,259,2.0,3.0,91,0.00,,,0.00,weatherlink.com 1.10,2013-06-02 11:02:00,
2013-06-02 03:17:00,39.1,38.0,30.22,NW,323,2.0,3.0,94,0.00,,,0.00,weatherlink.com 1.10,2013-06-02 11:17:00,
2013-06-02 03:32:00,39.6,38.0,30.22,NW,323,1.0,2.0,92,0.00,,,0.00,weatherlink.com 1.10,2013-06-02 11:32:00,
2013-06-02 03:47:00,38.7,37.0,30.22,NW,323,1.0,3.0,93,0.00,,,0.00,weatherlink.com 1.10,2013-06-02 11:47:00,
2013-06-02 04:02:00,38.1,36.0,30.21,NNW,336,2.0,4.0,93,0.00,,,0.00,weatherlink.com 1.10,2013-06-02 12:02:00,
2013-06-02 04:17:00,38.6,37.0,30.22,NNW,336,1.0,2.0,93,0.00,,,0.00,weatherlink.com 1.10,2013-06-02 12:17:00,
2013-06-02 04:32:00,38.0,37.0,30.22,NNW,336,0.0,3.0,94,0.00,,,0.00,weatherlink.com 1.10,2013-06-02 12:32:00,
2013-06-02 04:47:00,38.2,37.0,30.21,NNW,336,2.0,3.0,95,0.00,,,0.00,weatherlink.com 1.10,2013-06-02 12:47:00,
2013-06-02 05:02:00,38.1,37.0,30.20,NNW,336,1.0,3.0,94,0.00,,,0.00,weatherlink.com 1.10,2013-06-02 13:02:00,
2013-06-02 05:17:00,38.0,37.0,30.21,NE,36,1.0,4.0,94,0.00,,,0.00,weatherlink.com 1.10,2013-06-02 13:17:00,
2013-06-02 05:32:00,38.5,36.0,30.21,NE,34,2.0,4.0,92,0.00,,,0.00,weatherlink.com 1.10,2013-06-02 13:32:00,
2013-06-02 06:02:00,39.6,37.0,30.21,NE,45,0.0,5.0,91,0.00,,,0.00,weatherlink.com 1.10,2013-06-02 14:02:00,
2013-06-02 06:18:00,39.9,38.0,30.21,NNE,31,5.0,7.0,92,0.00,,,0.00,weatherlink.com 1.10,2013-06-02 14:18:00,
2013-06-02 06:33:00,40.2,38.0,30.21,NE,46,2.0,8.0,91,0.00,,,0.00,weatherlink.com 1.10,2013-06-02 14:33:00,
2013-06-02 06:48:00,40.5,38.0,30.20,NE,49,2.0,7.0,91,0.00,,,0.00,weatherlink.com 1.10,2013-06-02 14:48:00,
2013-06-02 07:03:00,41.0,39.0,30.21,NE,45,1.0,6.0,91,0.00,,,0.00,weatherlink.com 1.10,2013-06-02 15:03:00,
2013-06-02 07:18:00,41.1,38.0,30.21,NE,55,3.0,9.0,89,0.00,,,0.00,weatherlink.com 1.10,2013-06-02 15:18:00,
2013-06-02 07:33:00,41.3,38.0,30.21,ENE,72,1.0,5.0,89,0.00,,,0.00,weatherlink.com 1.10,2013-06-02 15:33:00,
2013-06-02 07:48:00,41.6,39.0,30.21,NE,52,5.0,6.0,89,0.00,,,0.00,weatherlink.com 1.10,2013-06-02 15:48:00,
2013-06-02 08:03:00,41.8,39.0,30.21,NE,52,0.0,5.0,89,0.00,,,0.00,weatherlink.com 1.10,2013-06-02 16:03:00,
2013-06-02 08:18:00,42.5,40.0,30.21,NE,53,1.0,4.0,89,0.00,,,0.00,weatherlink.com 1.10,2013-06-02 16:18:00,
2013-06-02 08:33:00,42.7,39.0,30.21,ENE,59,3.0,6.0,87,0.00,,,0.00,weatherlink.com 1.10,2013-06-02 16:33:00,
2013-06-02 08:48:00,43.1,40.0,30.21,ESE,113,3.0,7.0,87,0.00,,,0.00,weatherlink.com 1.10,2013-06-02 16:48:00,
2013-06-02 09:03:00,43.5,40.0,30.21,NNW,341,1.0,4.0,87,0.00,,,0.00,weatherlink.com 1.10,2013-06-02 17:03:00,
2013-06-02 09:18:00,44.3,39.0,30.21,ENE,68,0.0,3.0,82,0.00,,,0.00,weatherlink.com 1.10,2013-06-02 17:18:00,
2013-06-02 09:33:00,44.7,41.0,30.21,SSE,148,3.0,3.0,88,0.00,,,0.00,weatherlink.com 1.10,2013-06-02 17:33:00,
2013-06-02 09:48:00,44.5,42.0,30.21,SSE,148,0.0,3.0,90,0.00,,,0.00,weatherlink.com 1.10,2013-06-02 17:48:00,
2013-06-02 10:03:00,44.7,42.0,30.21,SSE,148,0.0,3.0,90,0.00,,,0.00,weatherlink.com 1.10,2013-06-02 18:03:00,
2013-06-02 10:18:00,45.3,42.0,30.21,SW,215,1.0,2.0,89,0.00,,,0.00,weatherlink.com 1.10,2013-06-02 18:18:00,
2013-06-02 10:33:00,46.1,43.0,30.20,SSE,153,1.0,4.0,89,0.00,,,0.00,weatherlink.com 1.10,2013-06-02 18:33:00,
2013-06-02 10:48:00,46.7,41.0,30.21,SW,227,2.0,4.0,79,0.00,,,0.00,weatherlink.com 1.10,2013-06-02 18:48:00,
2013-06-02 11:03:00,46.8,41.0,30.21,West,265,3.0,6.0,81,0.00,,,0.00,weatherlink.com 1.10,2013-06-02 19:03:00,
2013-06-02 11:18:00,47.4,43.0,30.20,SSE,159,2.0,4.0,83,0.00,,,0.00,weatherlink.com 1.10,2013-06-02 19:18:00,
2013-06-02 11:33:00,48.0,42.0,30.20,SW,217,3.0,7.0,81,0.00,,,0.00,weatherlink.com 1.10,2013-06-02 19:33:00,
2013-06-02 12:03:00,48.5,40.0,30.20,SW,218,2.0,8.0,73,0.00,,,0.00,weatherlink.com 1.10,2013-06-02 20:03:00,
2013-06-02 12:18:00,48.3,41.0,30.20,SSE,151,5.0,7.0,76,0.00,,,0.00,weatherlink.com 1.10,2013-06-02 20:18:00,
2013-06-02 12:48:00,49.8,41.0,30.19,SE,146,1.0,8.0,73,0.00,,,0.00,weatherlink.com 1.10,2013-06-02 20:48:00,
2013-06-02 13:03:00,49.9,42.0,30.20,SSW,204,7.0,9.0,73,0.00,,,0.00,weatherlink.com 1.10,2013-06-02 21:03:00,
2013-06-02 13:18:00,50.1,41.0,30.20,WSW,240,7.0,9.0,71,0.00,,,0.00,weatherlink.com 1.10,2013-06-02 21:18:00,
2013-06-02 13:33:00,50.4,41.0,30.19,South,172,7.0,9.0,70,0.00,,,0.00,weatherlink.com 1.10,2013-06-02 21:33:00,
2013-06-02 13:48:00,50.9,41.0,30.19,South,184,2.0,10.0,69,0.00,,,0.00,weatherlink.com 1.10,2013-06-02 21:48:00,
2013-06-02 14:03:00,50.6,41.0,30.19,SSE,153,5.0,7.0,70,0.00,,,0.00,weatherlink.com 1.10,2013-06-02 22:03:00,
2013-06-02 14:18:00,50.8,41.0,30.18,SW,216,3.0,8.0,69,0.00,,,0.00,weatherlink.com 1.10,2013-06-02 22:18:00,
2013-06-02 14:33:00,51.2,39.0,30.17,SSW,203,5.0,10.0,64,0.00,,,0.00,weatherlink.com 1.10,2013-06-02 22:33:00,
2013-06-02 14:48:00,51.9,40.0,30.17,SE,143,6.0,11.0,64,0.00,,,0.00,weatherlink.com 1.10,2013-06-02 22:48:00,
2013-06-02 15:03:00,51.3,40.0,30.17,East,93,8.0,10.0,65,0.00,,,0.00,weatherlink.com 1.10,2013-06-02 23:03:00,
2013-06-02 15:18:00,51.3,41.0,30.16,ESE,110,5.0,9.0,67,0.00,,,0.00,weatherlink.com 1.10,2013-06-02 23:18:00,
2013-06-02 15:33:00,52.0,41.0,30.16,ESE,121,2.0,12.0,67,0.00,,,0.00,weatherlink.com 1.10,2013-06-02 23:33:00,
2013-06-02 15:48:00,51.5,41.0,30.15,SE,130,0.0,10.0,68,0.00,,,0.00,weatherlink.com 1.10,2013-06-02 23:48:00,
2013-06-02 16:03:00,52.3,41.0,30.15,ENE,73,4.0,9.0,65,0.00,,,0.00,weatherlink.com 1.10,2013-06-03 00:03:00,
2013-06-02 16:19:00,52.8,41.0,30.14,SSE,150,5.0,10.0,64,0.00,,,0.00,weatherlink.com 1.10,2013-06-03 00:19:00,
2013-06-02 16:34:00,52.8,42.0,30.14,SSE,157,7.0,9.0,66,0.00,,,0.00,weatherlink.com 1.10,2013-06-03 00:34:00,
2013-06-02 16:49:00,51.9,41.0,30.14,SSE,168,10.0,13.0,66,0.00,,,0.00,weatherlink.com 1.10,2013-06-03 00:49:00,
2013-06-02 17:04:00,51.1,40.0,30.14,South,186,7.0,12.0,67,0.00,,,0.00,weatherlink.com 1.10,2013-06-03 01:04:00,
2013-06-02 17:19:00,50.8,40.0,30.14,SSW,210,1.0,14.0,67,0.00,,,0.00,weatherlink.com 1.10,2013-06-03 01:19:00,
2013-06-02 17:34:00,49.9,41.0,30.14,SSE,161,1.0,14.0,71,0.00,,,0.00,weatherlink.com 1.10,2013-06-03 01:34:00,
2013-06-02 17:49:00,50.0,40.0,30.13,SSW,208,3.0,10.0,68,0.00,,,0.00,weatherlink.com 1.10,2013-06-03 01:49:00,
2013-06-02 18:04:00,50.1,40.0,30.13,SSW,200,1.0,12.0,69,0.00,,,0.00,weatherlink.com 1.10,2013-06-03 02:04:00,
2013-06-02 18:19:00,49.7,40.0,30.12,SSW,207,0.0,7.0,69,0.00,,,0.00,weatherlink.com 1.10,2013-06-03 02:19:00,
2013-06-02 18:34:00,50.5,40.0,30.11,SW,234,5.0,8.0,68,0.00,,,0.00,weatherlink.com 1.10,2013-06-03 02:34:00,
2013-06-02 18:49:00,50.9,40.0,30.11,West,263,5.0,7.0,66,0.00,,,0.00,weatherlink.com 1.10,2013-06-03 02:49:00,
2013-06-02 19:04:00,51.2,40.0,30.11,South,170,4.0,7.0,65,0.00,,,0.00,weatherlink.com 1.10,2013-06-03 03:04:00,
2013-06-02 19:19:00,50.3,39.0,30.11,SE,132,3.0,12.0,66,0.00,,,0.00,weatherlink.com 1.10,2013-06-03 03:19:00,
2013-06-02 19:34:00,50.1,39.0,30.10,ENE,65,3.0,7.0,67,0.00,,,0.00,weatherlink.com 1.10,2013-06-03 03:34:00,
2013-06-02 19:49:00,50.0,39.0,30.10,ESE,108,7.0,9.0,67,0.00,,,0.00,weatherlink.com 1.10,2013-06-03 03:49:00,
2013-06-02 20:04:00,49.3,39.0,30.10,East,97,5.0,12.0,68,0.00,,,0.00,weatherlink.com 1.10,2013-06-03 04:04:00,
2013-06-02 20:19:00,48.6,39.0,30.10,ESE,117,3.0,10.0,69,0.00,,,0.00,weatherlink.com 1.10,2013-06-03 04:19:00,
2013-06-02 20:34:00,48.5,39.0,30.09,ESE,116,0.0,4.0,69,0.00,,,0.00,weatherlink.com 1.10,2013-06-03 04:34:00,
2013-06-02 20:49:00,48.3,39.0,30.09,East,80,3.0,8.0,70,0.00,,,0.00,weatherlink.com 1.10,2013-06-03 04:49:00,
2013-06-02 21:04:00,48.0,39.0,30.09,ENE,67,4.0,7.0,72,0.00,,,0.00,weatherlink.com 1.10,2013-06-03 05:04:00,
2013-06-02 21:19:00,47.9,39.0,30.08,ENE,69,4.0,7.0,72,0.00,,,0.00,weatherlink.com 1.10,2013-06-03 05:19:00,
2013-06-02 21:34:00,47.6,39.0,30.08,ENE,66,4.0,7.0,73,0.00,,,0.00,weatherlink.com 1.10,2013-06-03 05:34:00,
2013-06-02 21:49:00,47.0,39.0,30.08,ENE,61,2.0,6.0,75,0.00,,,0.00,weatherlink.com 1.10,2013-06-03 05:49:00,
2013-06-02 22:04:00,46.1,39.0,30.07,ENE,59,4.0,8.0,76,0.00,,,0.00,weatherlink.com 1.10,2013-06-03 06:04:00,
2013-06-02 22:19:00,45.6,38.0,30.07,ENE,73,4.0,9.0,76,0.00,,,0.00,weatherlink.com 1.10,2013-06-03 06:19:00,
2013-06-02 22:34:00,45.5,39.0,30.07,ENE,59,2.0,7.0,77,0.00,,,0.00,weatherlink.com 1.10,2013-06-03 06:34:00,
2013-06-02 22:49:00,45.4,39.0,30.07,ENE,69,2.0,5.0,78,0.00,,,0.00,weatherlink.com 1.10,2013-06-03 06:49:00,
2013-06-02 23:04:00,45.1,40.0,30.07,East,91,2.0,8.0,81,0.00,,,0.00,weatherlink.com 1.10,2013-06-03 07:04:00,
2013-06-02 23:19:00,44.3,39.0,30.06,NE,47,0.0,7.0,82,0.00,,,0.00,weatherlink.com 1.10,2013-06-03 07:19:00,
2013-06-02 23:34:00,44.1,39.0,30.06,NE,43,0.0,5.0,81,0.00,,,0.00,weatherlink.com 1.10,2013-06-03 07:34:00,
2013-06-02 23:49:00,43.8,39.0,30.05,NE,38,1.0,7.0,83,0.00,,,0.00,weatherlink.com 1.10,2013-06-03 07:49:00,